Home > Weather > Wiehl > Past weeks

Flag for Germany Weather for the Past 2 Weeks in Wiehl, North Rhine-Westphalia, Germany

Now
39 °F

Scattered clouds.


Feels Like: 32 °F
Forecast: 33 / 40 °F
Wind: 10 mph from Southeast

Location: Koeln / Bonn

Current Time: Feb 12, 2016 at 11:22:13 AM

Latest Report: Feb 12, 2016 at 10:50 AM


Visibility: N/A

Pressure: 29.56 "Hg

Humidity: 75%

Dew point: 32 °F

Location of WiehlLocation

Historic Weather in Wiehl — Graph

°F

Wiehl Temperature Yesterday

Maximum temperature yesterday: 45 °F (at 11:50 AM)
Minimum temperature yesterday: 37 °F (at 2:20 AM)
Average temperature yesterday: 40 °F

High & Low Weather Summary for the Past Weeks

 TemperatureHumidityPressure
High54 °F (Feb 1, 12:20 AM)100% (Jan 30, 6:20 PM)30.33 "Hg (Jan 30, 6:20 PM)
Low32 °F (Jan 29, 3:20 AM)50% (Feb 8, 3:50 PM)28.88 "Hg (Feb 9, 3:20 PM)
Average44 °F82%29.85 "Hg
* Reported Jan 28 9:20 AM — Feb 12 9:50 AM, Wiehl, Weather by CustomWeather, © 2016

Note: Actual official high and low records may vary slightly from our data, if they occured in-between our weather recording intervals... More about our weather records

Advertising

Wiehl Weather History for the Previous 24 Hours

 ConditionsComfort  
Time TempWeatherWind HumidityBarometerVisibility
9:50 AM
Fri, Feb 12
39 °FPassing clouds.8 mph75%29.59 "HgN/A
9:20 AM37 °FScattered clouds.8 mph81%29.59 "HgN/A
8:50 AM36 °FScattered clouds.7 mph87%29.62 "HgN/A
8:20 AM34 °FScattered clouds.8 mph93%29.62 "HgN/A
7:50 AM34 °FScattered clouds.7 mph93%29.62 "HgN/A
7:20 AM34 °FPassing clouds.7 mph93%29.62 "HgN/A
6:20 AM36 °FPassing clouds.8 mph87%29.62 "HgN/A
5:50 AM37 °FPassing clouds.7 mph87%29.62 "HgN/A
5:20 AM37 °FPassing clouds.8 mph87%29.65 "HgN/A
4:50 AM37 °FPartly cloudy.7 mph87%29.65 "HgN/A
4:20 AM37 °FPassing clouds.6 mph87%29.65 "HgN/A
3:50 AM37 °FSprinkles. Passing clouds.6 mph87%29.65 "HgN/A
3:20 AM37 °FPassing clouds.7 mph93%29.65 "HgN/A
2:50 AM37 °FPassing clouds.6 mph93%29.65 "HgN/A
2:20 AM37 °FPassing clouds.5 mph87%29.68 "HgN/A
1:50 AM37 °FPassing clouds.5 mph87%29.68 "HgN/A
1:20 AM37 °FPassing clouds.3 mph87%29.68 "HgN/A
12:50 AM37 °FPartly cloudy.7 mph87%29.68 "HgN/A
12:20 AM39 °FPassing clouds.6 mph81%29.68 "HgN/A
11:50 PM
Thu, Feb 11
39 °FPassing clouds.6 mph87%29.68 "HgN/A
10:50 PM37 °FPassing clouds.5 mph87%29.68 "HgN/A
10:20 PM39 °FPartly cloudy.6 mph87%29.68 "HgN/A
9:50 PM39 °FPassing clouds.7 mph87%29.68 "HgN/A
9:20 PM39 °FPassing clouds.3 mph93%29.68 "HgN/A
8:50 PM39 °FSprinkles. Partly cloudy.1 mph93%29.68 "HgN/A
8:20 PM39 °FSprinkles. Passing clouds.8 mph93%29.68 "HgN/A
7:50 PM39 °FSprinkles. Partly cloudy.7 mph87%29.68 "HgN/A
7:20 PM37 °FPassing clouds.6 mph87%29.68 "HgN/A
6:50 PM39 °FPartly cloudy.1 mph81%29.68 "HgN/A
6:20 PM41 °FPartly cloudy.2 mph76%29.68 "HgN/A
5:50 PM41 °FPartly cloudy.5 mph76%29.68 "HgN/A
5:20 PM43 °FPartly sunny.6 mph71%29.68 "HgN/A
4:50 PM43 °FPartly sunny.7 mph71%29.68 "HgN/A
4:20 PM43 °FPartly sunny.10 mph66%29.68 "HgN/A
3:50 PM45 °FBroken clouds.10 mph61%29.68 "HgN/A
3:20 PM45 °FBroken clouds.10 mph61%29.68 "HgN/A
2:50 PM45 °FBroken clouds.12 mph66%29.68 "HgN/A
2:20 PM45 °FBroken clouds.8 mph66%29.68 "HgN/A
1:50 PM43 °FBroken clouds.9 mph71%29.68 "HgN/A
1:20 PM45 °FBroken clouds.14 mph61%29.68 "HgN/A
12:50 PM45 °FBroken clouds.12 mph66%29.68 "HgN/A
12:20 PM45 °FScattered clouds.14 mph66%29.71 "HgN/A
11:50 AM45 °FScattered clouds.10 mph71%29.71 "HgN/A
11:20 AM43 °FScattered clouds.14 mph76%29.71 "HgN/A
Weather by CustomWeather, © 2016

See weather overviewHow to use our weather pages